Knob Noster, MO

7:31 PM CDT on August 24, 2016 (GMT -0500)
Whiteman Air Force Base

Weather History for KSZL - June, 2014

Change the Weather History Date:

Monday, June 9, 2014

  Actual Average Record
Temperature  
Mean Temperature 66 °F -  
Max Temperature 72 °F 79 °F 91 °F (2006)
Min Temperature 60 °F 61 °F 50 °F (2007)
Growing Degree Days 16 (Base 50)    
Moisture  
Dew Point 59 °F    
Average Humidity 80    
Maximum Humidity 88    
Minimum Humidity 60    
Precipitation  
Precipitation 1.69 in - - ()
Sea Level Pressure  
Sea Level Pressure 29.77 in    
Wind  
Wind Speed 9 mph (East)    
Max Wind Speed 16 mph    
Max Gust Speed 23 mph    
Visibility 5 miles    
Events Rain    
Averages and records for this station are not official NWS values.
T = Trace of Precipitation, MM = Missing Value Source: NWS Daily Summary

Daily Weather History Graph

Daily Weather History Graph

Search for Another Location

Airport or City:

Trip Planner

Search our weather history database for the weather conditions in past years. The results will help you decide how hot, cold, wet, or windy it might be!

Date:

Astronomy

Jun. 09, 2014 Rise Set
Actual Time 5:49 AM CDT 8:38 PM CDT
Civil Twilight 5:17 AM CDT 9:09 PM CDT
Nautical Twilight 4:37 AM CDT 9:49 PM CDT
Astronomical Twilight 3:52 AM CDT 10:35 PM CDT
Moon 5:01 PM CDT (6/9) 3:14 AM CDT (6/9)
Length of Visible Light 15h 52m
Length of Day
14h 48m
Waxing Gibbous, 85% of the Moon is Illuminated
Jun 9
Waxing Gibbous
Jun 12
Full
Jun 19
Last Quarter
Jun 27
New
Jul 5
First Quarter

Hourly Weather History & Observations

Time (CDT) Temp. Dew Point Humidity Pressure Visibility Wind Dir Wind Speed Gust Speed Precip Events Conditions
12:58 AM 62.1 °F 56.8 °F 83% 29.94 in 10.0 mi ESE 4.6 mph - N/A   Clear
1:58 AM 61.7 °F 56.8 °F 84% 29.93 in 10.0 mi East 5.8 mph - N/A   Clear
2:58 AM 62.2 °F 57.4 °F 84% 29.91 in 9.0 mi East 6.9 mph - N/A   Clear
3:58 AM 61.7 °F 56.7 °F 84% 29.90 in 9.0 mi East 5.8 mph - N/A   Clear
4:58 AM 61.2 °F 56.7 °F 85% 29.89 in 7.0 mi East 5.8 mph - N/A   Clear
5:53 AM 60.8 °F 57.2 °F 88% 29.86 in 3.0 mi East 6.9 mph - N/A   Mostly Cloudy
5:58 AM 61.2 °F 56.7 °F 85% 29.86 in 3.0 mi East 6.9 mph - N/A   Mostly Cloudy
6:55 AM 61.9 °F 57.4 °F 85% 29.87 in 6.0 mi ESE 6.9 mph - N/A   Mostly Cloudy
7:48 AM 64.4 °F 59.0 °F 83% 29.86 in 7.0 mi East 8.1 mph - N/A   Mostly Cloudy
7:55 AM 63.9 °F 58.3 °F 82% 29.86 in 6.0 mi ESE 5.8 mph - N/A   Mostly Cloudy
8:47 AM 66.2 °F 59.0 °F 78% 29.88 in 10.0 mi ESE 9.2 mph - N/A   Mostly Cloudy
8:58 AM 65.7 °F 58.6 °F 78% 29.87 in 10.0 mi East 8.1 mph - N/A   Mostly Cloudy
9:43 AM 68.0 °F 59.0 °F 73% 29.86 in 10.0 mi East 9.2 mph - N/A   Mostly Cloudy
9:58 AM 68.4 °F 59.0 °F 72% 29.85 in 10.0 mi East 10.4 mph - N/A   Mostly Cloudy
10:58 AM 70.9 °F 58.1 °F 64% 29.84 in 10.0 mi East 9.2 mph - N/A   Mostly Cloudy
11:59 AM 71.6 °F 57.2 °F 60% 29.82 in 10.0 mi ESE 12.7 mph 18.4 mph N/A   Overcast
12:21 PM 71.6 °F 57.2 °F 60% 29.83 in 10.0 mi ESE 15.0 mph 18.4 mph N/A Rain Light Rain
1:36 PM 68.0 °F 59.0 °F 73% 29.80 in 7.0 mi East 9.2 mph - N/A Rain Light Rain
1:58 PM 69.6 °F 57.4 °F 65% 29.79 in 5.0 mi ESE 13.8 mph - 0.00 in Rain Light Rain
2:58 PM 67.3 °F 59.7 °F 77% 29.77 in 10.0 mi East 8.1 mph - 0.01 in   Overcast
3:58 PM 68.5 °F 59.7 °F 73% 29.75 in 10.0 mi East 8.1 mph - N/A   Overcast
4:24 PM 68.0 °F 59.0 °F 73% 29.75 in 6.0 mi East 8.1 mph - N/A Rain Light Rain Showers
4:41 PM 68.0 °F 60.8 °F 78% 29.75 in 5.0 mi East 8.1 mph - N/A   Light Drizzle
4:45 PM 68.0 °F 60.8 °F 78% 29.75 in 1.8 mi East 8.1 mph - N/A Rain Rain
4:51 PM 66.2 °F 60.8 °F 83% 29.74 in 2.0 mi East 9.2 mph - N/A Rain Rain
4:58 PM 66.7 °F 60.4 °F 80% 29.74 in 2.0 mi East 8.1 mph - 0.06 in Rain Rain
5:03 PM 66.2 °F 60.8 °F 83% 29.74 in 2.5 mi East 8.1 mph - N/A Rain Rain
5:08 PM 66.2 °F 60.8 °F 83% 29.74 in 3.0 mi East 9.2 mph - N/A Rain Light Rain
5:13 PM 66.2 °F 60.8 °F 83% 29.74 in 4.0 mi East 9.2 mph - N/A Rain Light Rain
5:18 PM 66.2 °F 60.8 °F 83% 29.74 in 3.0 mi East 8.1 mph - N/A Rain Light Rain
5:23 PM 66.2 °F 60.8 °F 83% 29.74 in 3.0 mi East 8.1 mph - N/A Rain Rain
5:28 PM 66.2 °F 60.8 °F 83% 29.74 in 2.5 mi East 8.1 mph - N/A Rain Light Rain
5:38 PM 66.2 °F 60.8 °F 83% 29.73 in 2.0 mi East 9.2 mph - N/A Rain Rain
5:58 PM 65.8 °F 60.3 °F 82% 29.73 in 1.5 mi East 11.5 mph - 0.26 in Rain Heavy Rain
6:03 PM 66.2 °F 60.8 °F 83% 29.73 in 1.2 mi East 11.5 mph - N/A Rain Heavy Rain
6:13 PM 66.2 °F 59.0 °F 78% 29.73 in 2.5 mi East 12.7 mph - N/A Rain Rain
6:18 PM 66.2 °F 59.0 °F 78% 29.74 in 1.5 mi East 12.7 mph - N/A Rain Heavy Rain
6:28 PM 64.4 °F 59.0 °F 83% 29.74 in 2.0 mi ENE 10.4 mph - N/A Rain Rain
6:33 PM 66.2 °F 59.0 °F 78% 29.74 in 3.0 mi ENE 11.5 mph - N/A Rain Rain
6:43 PM 64.4 °F 59.0 °F 83% 29.73 in 4.0 mi ENE 11.5 mph - N/A Rain Rain
6:58 PM 65.1 °F 59.2 °F 81% 29.73 in 3.0 mi ENE 12.7 mph - 0.32 in Rain Rain
7:03 PM 64.4 °F 59.0 °F 83% 29.73 in 1.8 mi ENE 12.7 mph - N/A Rain Rain
7:13 PM 64.4 °F 59.0 °F 83% 29.73 in 2.0 mi ENE 12.7 mph - N/A Rain Heavy Rain
7:38 PM 64.4 °F 59.0 °F 83% 29.73 in 4.0 mi East 12.7 mph 19.6 mph N/A Rain Rain
7:58 PM 64.6 °F 59.0 °F 82% 29.73 in 2.0 mi ENE 11.5 mph - 0.25 in Rain Light Rain
8:03 PM 64.4 °F 59.0 °F 83% 29.73 in 1.2 mi ENE 12.7 mph 18.4 mph N/A Rain Light Rain
8:15 PM 64.4 °F 59.0 °F 83% 29.73 in 4.0 mi ENE 13.8 mph 21.9 mph N/A Rain Rain
8:50 PM 64.4 °F 57.2 °F 77% 29.72 in 4.0 mi ENE 13.8 mph 19.6 mph N/A Rain Light Rain
8:59 PM 63.7 °F 58.1 °F 82% 29.73 in 4.0 mi East 11.5 mph 19.6 mph 0.08 in   Light Drizzle
9:11 PM 64.4 °F 59.0 °F 83% 29.73 in 4.0 mi ENE 12.7 mph 23.0 mph N/A Rain Light Rain
9:22 PM 64.4 °F 59.0 °F 83% 29.72 in 4.0 mi East 11.5 mph 21.9 mph N/A Rain Rain
9:27 PM 64.4 °F 59.0 °F 83% 29.72 in 2.5 mi ENE 15.0 mph 21.9 mph N/A Rain Rain
9:37 PM 64.4 °F 59.0 °F 83% 29.72 in 3.0 mi ENE 15.0 mph 19.6 mph N/A Rain Heavy Rain
9:42 PM 64.4 °F 59.0 °F 83% 29.72 in 3.0 mi ENE 13.8 mph 21.9 mph N/A Rain Heavy Rain
9:58 PM 63.5 °F 57.9 °F 82% 29.72 in 4.0 mi ENE 13.8 mph 23.0 mph 0.22 in Rain Rain
10:08 PM 62.6 °F 57.2 °F 82% 29.73 in 5.0 mi ENE 15.0 mph 21.9 mph N/A Rain Rain
10:18 PM 62.6 °F 57.2 °F 82% 29.73 in 5.0 mi ENE 16.1 mph 21.9 mph N/A Rain Rain
10:28 PM 62.6 °F 57.2 °F 82% 29.73 in 8.0 mi ENE 12.7 mph 23.0 mph N/A Rain Light Rain
10:37 PM 62.6 °F 57.2 °F 82% 29.73 in 8.0 mi ENE 16.1 mph 20.7 mph N/A Rain Light Rain
10:47 PM 62.6 °F 57.2 °F 82% 29.73 in 4.0 mi ENE 15.0 mph 20.7 mph N/A Rain Heavy Rain
10:58 PM 63.1 °F 57.7 °F 83% 29.73 in 2.5 mi ENE 11.5 mph 21.9 mph 0.13 in Rain Heavy Rain
11:08 PM 62.6 °F 57.2 °F 82% 29.73 in 2.5 mi ENE 9.2 mph - N/A Rain Rain
11:13 PM 62.6 °F 57.2 °F 82% 29.73 in 3.0 mi ENE 5.8 mph - N/A Rain Heavy Rain
11:28 PM 62.6 °F 57.2 °F 82% 29.74 in 2.0 mi ESE 4.6 mph - N/A Rain Rain
11:48 PM 62.6 °F 57.2 °F 82% 29.75 in 1.2 mi East 4.6 mph - N/A Rain Heavy Rain
11:53 PM 62.6 °F 57.2 °F 82% 29.75 in 1.2 mi East 4.6 mph - N/A Rain Rain
11:58 PM 62.8 °F 57.6 °F 83% 29.73 in 1.2 mi East 4.6 mph - 0.36 in Rain Rain